Погода в Шарбакты

Казахстан     52°29′19″N   78°09′31″E
темп.,
°C
ветер,
м/с
пор.,
м/с
влажн.,
%
обл.,
%
осадки,
мм/ч
давл.,
гПа
погр.,
м
15 августа, пн
пн1500:00+16ссз49502 0.0 1013270
03:00+13сз37600 0.0 1014175
06:00+12зсз35660 0.0 1015105
09:00+16зсз68532 0.0 1015853
12:00+20сз684142 0.0 10152093
15:00+21сз683598 0.0 10142546
18:00+18ссз794550 0.0 1015877
21:00+15ссз49530 0.0 1016247
16 августа, вт
вт1600:00+13сз46612 0.0 1016118
03:00+11с48595 0.0 1017160
06:00+9с35595 0.0 101896
09:00+13з3447100 0.0 1018413
12:00+18сз683480 0.0 10172428
15:00+20сз783148 0.0 10162573
18:00+18ссз673128 0.0 10162346
21:00+14сз34429 0.0 101653
17 августа, ср
ср1700:00+12сз344662 0.0 101653
03:00+12зсз3354100 0.0 101539
06:00+12зюз4653100 0.0 1014111
09:00+14зсз6854100 0.1 1014839
12:00+17зсз61049100 1.4 10131896
15:00+18зсз8103598 0.1 10132296
18:00+17сз89395 0.1 10131946
21:00+12сз47583 0.0 1014134
18 августа, чт
чт1800:00+10зсз366446 0.0 101599
03:00+8сз34705 0.0 101453
06:00+7сз34785 0.0 101586
09:00+12сз45605 0.0 1015783
12:00+15сз5646100 0.6 10151897
15:00+15сз554196 0.0 10151921
18:00+15сз553794 0.0 10152021
21:00+13с464586 0.0 1016354
19 августа, пт
пт1900:00+8св367097 0.0 1017218
03:00+8ссз247573 0.0 1017131
06:00+6сз378581 0.0 1018191
09:00+9сз5671100 0.0 1018701
12:00+12сз665598 0.1 10191391
15:00+15сз5640100 0.0 10182141
18:00+14сз4644100 0.0 1018454
21:00+13ссз595092 0.0 1019424